Location: Poughquag
(41.6090°N, 73.6820°W)
Time: 07:56:44
(UTC-04:00)

CAS-4A - Visible Passes

Search period start: 15 May 2025 00:00
Search period end: 25 May 2025 00:00
Orbit: 371 x 397 km, 43.0° (Epoch: 15 May)

Date Brightness Start Highest point End Pass type
(mag) Time Alt. Az. Time Alt. Az. Time Alt. Az.
15 May ? 20:52:32 10° WSW 20:55:39 83° SSE 20:58:46 10° ENE visible
15 May ? 22:29:21 10° W 22:31:55 52° NW 22:31:55 52° NW visible
16 May ? 21:29:28 10° W 21:32:34 65° N 21:34:53 16° ENE visible
16 May ? 23:06:15 10° WNW 23:07:04 17° WNW 23:07:04 17° WNW visible
17 May ? 22:06:16 10° WNW 22:09:23 73° N 22:09:48 60° ENE visible
18 May ? 21:06:10 10° W 21:09:17 65° N 21:12:22 10° E visible
18 May ? 22:42:55 10° W 22:44:34 28° W 22:44:34 28° W visible
19 May ? 21:42:41 10° WNW 21:45:49 88° SSW 21:46:59 35° ESE visible
20 May ? 20:42:22 10° WNW 20:45:30 73° N 20:48:36 10° E visible
20 May ? 22:19:09 10° W 22:21:27 33° SW 22:21:27 33° SW visible
21 May ? 21:18:37 10° W 21:21:43 62° SSW 21:23:40 20° ESE visible
22 May ? 21:55:02 10° W 21:57:37 24° SSW 21:57:54 23° SSW visible
23 May ? 20:54:08 10° W 20:57:06 40° SSW 20:59:56 11° SE visible
24 May ? 21:30:45 10° WSW 21:32:38 15° SW 21:34:01 12° S visible
